SCP
0 0 0 0 0 0 0 0 0 0 0 0 0 0 0 0 0 0 0 0 0 0
0 0 0 0 0 0 0 0 0 0 0 0 0 0 0 0 0 0 0 0 0 0
0 0 0 0 0 0 0 0 0 0 0 0 0 0 0 0 0 0 0 0 0 0
0 0 0 0 0 0 0 0 0 0 0 0 0 0 0 0 0 0 0 0 0 -0
0 0 0 0 0 0 0 0 0 0 0 0 0 0 0 0 0 0 0 0 0 0
0 0 0 0 0 0 0 0 0 0 0 0 0 0 0 0 0 0 0 0 0 0
0 0 0 0 0 0 0 0 -0 -0 -0 0 0 0 -0 0 0 0 0 0 0 -0
0 0 0 0 0 0 0 0 -0 -0 0 0 -0 0 -0 -0 0 0 0 0 -0 -0
0 0 0 0 0 0 0 0 0 0 0 0 0 0 0 -0 -0 0 0 0 -0 0
0 0 0 0 0 0 0 0 0 0 0 0 0 0 -0 -0 -0 0 0 0 0 0
0 0 0 0 0 0 0 0 0 0 0 0 0 -0 -0 0 0 0 0 0 0 0
0 0 0 0 0 0 0 0 0 0 0 -0 -0 -0 -0 0 0 0 0 0 0 0
0 0 0 0 0 0 0 0 0 0 0 0 0 -0 -0 0 0 0 0 0 0 0
0 0 0 0 0 0 0 0 0 -0 0 0 0 -0 -0 -0 0 0 0 0 0 0
Wind_Speed_500mb
68 71 77 76 74 73 74 78 77 70 68 70 67 67 69 73 80 84 79 80 78 114
77 74 69 65 63 64 66 69 71 67 65 66 68 69 70 73 75 75 80 74 82 92
69 62 61 65 62 61 64 66 76 81 84 87 87 87 87 86 81 73 74 72 81 86
62 61 60 62 66 66 71 72 78 82 82 80 76 76 76 77 78 86 87 78 80 87
63 64 65 68 70 70 75 75 79 81 85 85 81 78 76 76 76 75 74 78 80 95
64 68 71 72 74 75 77 78 78 78 82 85 84 84 79 76 74 77 82 86 82 88
66 69 67 67 69 71 72 77 78 78 81 83 85 85 83 81 75 77 77 88 98 90
65 62 62 65 68 69 68 68 67 70 74 78 81 84 87 89 87 87 86 98 100 95
64 64 64 65 66 69 68 66 62 59 59 63 62 64 62 68 81 80 85 86 95 96
63 66 66 66 66 67 61 56 51 47 42 36 38 45 42 35 40 50 57 58 70 68
62 67 66 65 61 59 52 52 50 45 39 34 36 23 22 27 37 42 38 43 56 62
57 62 64 63 61 53 44 46 53 56 62 46 44 45 55 62 64 68 77 83 84 86
52 59 61 58 58 48 40 45 57 67 72 71 66 58 67 76 83 90 94 103 110 104
48 55 56 53 49 41 39 49 62 71 77 83 79 77 81 88 98 101 117 124 121 110
Wind_Direction_500mb
316 312 307 307 305 305 308 310 310 303 298 295 292 288 282 280 273 271 267 267 263 253
314 314 313 311 306 303 305 306 305 302 296 288 283 282 283 279 276 268 265 270 256 259
325 318 312 313 312 307 303 297 292 288 283 281 278 274 272 269 267 269 269 261 261 261
321 319 315 314 309 304 299 300 298 295 291 288 287 285 280 276 270 261 261 266 265 260
323 321 317 315 315 314 311 307 301 300 297 294 289 284 279 274 271 266 258 263 263 259
324 322 318 317 318 316 312 307 303 298 295 291 286 284 279 273 268 260 262 256 264 267
327 322 321 322 319 317 316 313 308 304 301 297 292 284 278 271 263 259 256 258 261 267
334 334 334 333 331 328 326 321 317 312 307 302 297 289 282 273 266 263 262 265 264 257
343 345 346 345 343 340 339 336 331 324 314 308 302 295 283 269 262 258 258 260 264 248
350 353 354 354 351 348 345 342 344 342 334 334 334 312 299 280 251 244 245 249 249 238
359 359 358 359 357 358 359 4 5 14 13 13 17 30 89 140 154 152 153 166 169 180
8 3 3 1 1 4 7 23 32 38 43 45 51 58 82 103 112 115 111 114 121 131
15 13 10 5 6 5 22 41 51 53 56 57 54 68 80 92 99 100 100 105 112 116
19 22 19 16 17 18 42 59 62 66 66 68 70 78 87 92 91 91 93 94 96 99
Wind_Speed_850mb
68 71 77 76 74 73 74 78 77 70 68 70 67 67 69 73 80 84 79 80 78 114
77 74 69 65 63 64 66 69 71 67 65 66 68 69 70 73 75 75 80 74 82 92
69 62 61 65 62 61 64 66 76 81 84 87 87 87 87 86 81 73 74 72 81 86
62 61 60 62 66 66 71 72 78 82 82 80 76 76 76 77 78 86 87 78 80 87
63 64 65 68 70 70 75 75 79 81 85 85 81 78 76 76 76 75 74 78 80 95
64 68 71 72 74 75 77 78 78 78 82 85 84 84 79 76 74 77 82 86 82 88
66 69 67 67 69 71 72 77 78 78 81 83 85 85 83 81 75 77 77 88 98 90
65 62 62 65 68 69 68 68 67 70 74 78 81 84 87 89 87 87 86 98 100 95
64 64 64 65 66 69 68 66 62 59 59 63 62 64 62 68 81 80 85 86 95 96
63 66 66 66 66 67 61 56 51 47 42 36 38 45 42 35 40 50 57 58 70 68
62 67 66 65 61 59 52 52 50 45 39 34 36 23 22 27 37 42 38 43 56 62
57 62 64 63 61 53 44 46 53 56 62 46 44 45 55 62 64 68 77 83 84 86
52 59 61 58 58 48 40 45 57 67 72 71 66 58 67 76 83 90 94 103 110 104
48 55 56 53 49 41 39 49 62 71 77 83 79 77 81 88 98 101 117 124 121 110
Wind_Direction_850mb
316 312 307 307 305 305 308 310 310 303 298 295 292 288 282 280 273 271 267 267 263 253
314 314 313 311 306 303 305 306 305 302 296 288 283 282 283 279 276 268 265 270 256 259
325 318 312 313 312 307 303 297 292 288 283 281 278 274 272 269 267 269 269 261 261 261
321 319 315 314 309 304 299 300 298 295 291 288 287 285 280 276 270 261 261 266 265 260
323 321 317 315 315 314 311 307 301 300 297 294 289 284 279 274 271 266 258 263 263 259
324 322 318 317 318 316 312 307 303 298 295 291 286 284 279 273 268 260 262 256 264 267
327 322 321 322 319 317 316 313 308 304 301 297 292 284 278 271 263 259 256 258 261 267
334 334 334 333 331 328 326 321 317 312 307 302 297 289 282 273 266 263 262 265 264 257
343 345 346 345 343 340 339 336 331 324 314 308 302 295 283 269 262 258 258 260 264 248
350 353 354 354 351 348 345 342 344 342 334 334 334 312 299 280 251 244 245 249 249 238
359 359 358 359 357 358 359 4 5 14 13 13 17 30 89 140 154 152 153 166 169 180
8 3 3 1 1 4 7 23 32 38 43 45 51 58 82 103 112 115 111 114 121 131
15 13 10 5 6 5 22 41 51 53 56 57 54 68 80 92 99 100 100 105 112 116
19 22 19 16 17 18 42 59 62 66 66 68 70 78 87 92 91 91 93 94 96 99